Regional Weather Roundup
Issued by NWS

Home | Current Version | Previous Version | Text Only | Print | Product List | Glossary Off
Versions: 1 2 3 4 5 6 7 8 9 10 11 12 13 14 15 16 17 18 19 20 21 22 23 24 25 26 27 28 29 30 31 32 33 34 35 36 37 38 39 40 41 42 43 44 45 46 47 48 49 50

000
ASUS43 KLMK 221710
RWRKY
KENTUCKY REGIONAL WEATHER ROUNDUP
NATIONAL WEATHER SERVICE LOUISVILLE KY
1200 PM EST MON DEC 22 2014

NOTE "FAIR" INDICATES FEW OR NO CLOUDS BELOW 12,000 FEET
WITH NO SIGNIFICANT WEATHER AND/OR OBSTRUCTIONS TO VISIBILITY.

KYZ001>023-026-027-061>063-070>075-221800-
WESTERN AND SOUTH CENTRAL KENTUCKY

CITY           SKY/WX    TMP DP  RH WIND       PRES   REMARKS
PADUCAH        CLOUDY    49  47  93 SE8       29.78F FOG
HENDERSON      CLOUDY    48  41  76 SE12      29.83F
OWENSBORO      CLOUDY    50  45  83 SE12      29.87F
HOPKINSVILLE   NOT AVBL
BOWLING GREEN  CLOUDY    54  44  69 SE8       29.88F
GLASGOW        CLOUDY    52  43  70 S7        29.89F
$$

KYZ024-025-028>034-038-045-046-053-221800-
NORTH CENTRAL KENTUCKY

CITY           SKY/WX    TMP DP  RH WIND       PRES   REMARKS
LOUISVILLE/SDF CLOUDY    50  39  66 SE7       29.90F
LOUISVILLE/LOU CLOUDY    49  39  68 E8        29.90F
FORT KNOX      NOT AVBL
$$

KYZ035>037-039>044-047>052-055>060-089>105-221800-
NORTHEAST KENTUCKY

CITY           SKY/WX    TMP DP  RH WIND       PRES   REMARKS
LEXINGTON      CLOUDY    50  38  63 S12       29.95F
COVINGTON      CLOUDY    48  34  58 SE7       29.94
FRANKFORT      CLOUDY    49  38  65 S7        29.94F
$$

KYZ054-064>069-076>088-106>120-221800-
SOUTHEAST KENTUCKY

CITY           SKY/WX    TMP DP  RH WIND       PRES   REMARKS
JACKSON        PTSUNNY   50  37  61 VRB3      29.96F
LONDON         SUNNY     56  41  57 SE9       29.94F
SOMERSET       MOSUNNY   54  39  58 SE5       29.93F
MIDDLESBORO    CLOUDY    53  41  63 SE3       29.96F
MONTICELLO     MOSUNNY   56  43  61 S14       29.94F
$$




USA.gov is the U.S. government's official web portal to all federal, state and local government web resources and services.